Weather in Novonazimovo

Russia / Krasnoyarsk Krai     59°34′10″N   90°48′59″E
temp.,
°C
wind,
m/s
gust,
m/s
humid.,
%
clouds,
%
prec.,
mm/h
press.,
hPa
HPBL,
m
8 may, sat
sat801:00+4w229583 0.1 100633
04:00+4wsw379797 0.1 1008198
07:00+5wnw4789100 0.3 1009917
10:00+5w3683100 0.6 1009776
13:00+7w3470100 1.1 1010990
16:00+6w3476100 1.2 1010848
19:00+6nne2375100 1.8 1011540
22:00+3nnw1291100 0.2 101242
9 may, sun
sun901:00+3nw249287 0.2 1012102
04:00+1nnw269899 0.0 1013160
07:00+4n368783 0.0 1015532
10:00+7n3570100 0.1 10161081
13:00+8nnw466299 0.3 10171284
16:00+9n565697 0.1 10181362
19:00+7n3774100 0.2 10201116
22:00+5n2590100 0.1 1022143
10 may, mon
mon1001:00+5nnw2489100 0.1 1023135
04:00+4nnw259255 0.0 1023132
07:00+6n23795 0.0 1024174
10:00+12ne23485 0.0 10251369
13:00+15ne333677 0.0 10242161
16:00+15ne433623 0.0 10232005
19:00+13nne344119 0.0 10231620
22:00+8ene246722 0.0 102383
11 may, tue
tue1101:00+6e226945 0.0 102337
04:00+6ne226485 0.0 102248
07:00+8nne246876 0.0 1022208
10:00+13ne354384 0.1 10211950
13:00+12ne554753 0.1 10211690
16:00+11ne565291 0.0 10211456
19:00+11ene465290 0.0 10211400
22:00+8ne486264 0.0 1022494
12 may, wed
wed1201:00+3ne28835 0.0 1023178
04:00+2ne24835 0.0 102375
07:00+6ene25580 0.0 1023260
10:00+11ene35315 0.0 10231902
13:00+13ne34265 0.0 10222240
16:00+14ne34264 0.0 10212357
19:00+12ene443226 0.0 10212148
22:00+7e23525 0.0 102350